Location: The Saddle
(36.8333°N, 80.3417°W)
Time: 09:24:35
(UTC-05:00)

S-56A Canister/Altair - Pass Details

Date: 10 December 2023
Orbit: 640 x 2488 km, 38.9° (Epoch: 25 February)

Event Time Altitude Azimuth Distance (km) Brightness Sun altitude
Rises 15:47:28 0° 281° (W) 2,940 11.1 11.9°
Reaches altitude 10° 15:49:50 10° 270° (W) 2,073 10.7 11.6°
Maximum altitude 15:53:55 31° 208° (SSW) 1,268 9.9 10.9°
Drops below altitude 10° 15:58:56 10° 147° (SSE) 2,556 10.3 10.2°
Sets 16:02:11 0° 137° (SE) 3,761 11.0 9.7°
